FW8702 Weather Reports


time (UTC)temp
C
wind
direction
speed
KPH
gust
KPH
rain 1hr
cm
rain 24hr
cm
rain mn
cm
humidity
%
barometer
mb
20260509211522 14 320 0.0 0.0 0.00 0.00 0.00 80 1016.6
20260509210024 15 320 0.0 0.0 0.00 0.00 0.00 79 1016.4
20260509204537 15 320 0.0 0.0 0.00 0.00 0.00 79 1016.5
20260509203046 15 320 0.0 0.0 0.00 0.00 0.00 79 1016.5
20260509201510 15 320 0.0 0.0 0.00 0.00 0.00 79 1016.3
20260509200018 15 320 0.0 0.0 0.00 0.00 0.00 77 1016.2
20260509194543 16 320 0.0 0.0 0.00 0.00 0.00 78 1015.8
20260509193053 16 320 0.0 0.0 0.00 0.00 0.00 77 1015.7
20260509191514 17 320 0.0 0.0 0.00 0.00 0.00 73 1015.6
20260509190004 18 320 0.0 0.0 0.00 0.00 0.00 73 1015.5
20260509184515 18 320 0.0 0.0 0.00 0.00 0.00 71 1015.6
20260509183026 19 320 0.0 0.0 0.00 0.00 0.00 67 1015.6
20260509181557 20 320 0.0 0.0 0.00 0.00 0.00 66 1015.4
20260509180057 21 320 0.0 0.0 0.00 0.00 0.00 62 1015.3
20260509174650 22 233 0.0 0.0 0.00 0.00 0.00 59 1015.3
20260509173028 22 233 0.0 0.0 0.00 0.00 0.00 54 1015.2
20260509171557 23 233 0.0 0.0 0.00 0.00 0.00 47 1015.3
20260509170004 24 233 0.0 0.0 0.00 0.00 0.00 45 1015.3
20260509164531 25 233 0.0 0.0 0.00 0.00 0.00 45 1015.5
20260509163105 24 233 0.0 0.0 0.00 0.00 0.00 45 1015.7
20260509161514 23 227 0.0 0.0 0.00 0.00 0.00 47 1015.6
20260509160011 23 229 0.0 0.0 0.00 0.00 0.00 45 1015.9
20260509154534 24 238 0.0 8.0 0.00 0.00 0.00 45 1015.9
20260509153051 24 242 0.0 6.4 0.00 0.00 0.00 45 1015.9
20260509151510 23 231 0.0 6.4 0.00 0.00 0.00 45 1016.0
20260509150026 23 249 0.0 12.9 0.00 0.00 0.00 47 1015.9
20260509144546 23 235 3.2 14.5 0.00 0.00 0.00 47 1015.9
20260509143014 23 242 3.2 16.1 0.00 0.00 0.00 48 1016.0
20260509141527 23 262 0.0 19.3 0.00 0.00 0.00 50 1016.0
20260509140033 24 226 1.6 14.5 0.00 0.00 0.00 48 1016.2
20260509134541 24 256 3.2 12.9 0.00 0.00 0.00 45 1016.4
20260509133059 23 327 0.0 8.0 0.00 0.00 0.00 47 1016.8
20260509131505 24 297 0.0 6.4 0.00 0.00 0.00 44 1016.9
20260509130123 24 229 0.0 8.0 0.00 0.00 0.00 45 1017.1
20260509124537 23 240 0.0 9.7 0.00 0.00 0.00 46 1017.1
20260509123104 23 204 0.0 12.9 0.00 0.00 0.00 48 1017.0
20260509121514 23 231 3.2 16.1 0.00 0.00 0.00 50 1017.2
20260509120023 23 233 0.0 3.2 0.00 0.00 0.00 52 1017.2
20260509114543 22 246 0.0 9.7 0.00 0.00 0.00 53 1017.4
20260509113043 22 289 0.0 1.6 0.00 0.00 0.00 54 1017.5
20260509111507 22 245 0.0 1.6 0.00 0.00 0.00 56 1017.7
20260509110026 22 255 0.0 0.0 0.00 0.00 0.00 58 1018.0
20260509104539 22 243 0.0 4.8 0.00 0.00 0.00 56 1018.2
20260509103002 21 235 0.0 1.6 0.00 0.00 0.00 58 1018.5
20260509101530 21 233 0.0 11.3 0.00 0.00 0.00 57 1018.6
20260509100025 21 233 0.0 3.2 0.00 0.00 0.00 60 1018.7
20260509094551 21 223 0.0 3.2 0.00 0.00 0.00 60 1018.8
20260509093018 20 137 0.0 1.6 0.00 0.00 0.00 60 1018.7
20260509091531 20 188 0.0 1.6 0.00 0.00 0.00 66 1018.9
20260509090025 19 130 0.0 0.0 0.00 0.00 0.00 67 1019.0
20260509084537 18 67 0.0 1.6 0.00 0.00 0.00 69 1019.1
20260509083105 17 298 0.0 0.0 0.00 0.00 0.00 71 1019.1
20260509081524 17 301 0.0 4.8 0.00 0.00 0.00 72 1019.2
20260509080022 17 312 0.0 6.4 0.00 0.00 0.00 71 1019.2
20260509074535 17 265 0.0 1.6 0.00 0.00 0.00 71 1019.3
20260509073053 17 47 0.0 0.0 0.00 0.00 0.00 73 1019.4
20260509071519 16 72 0.0 1.6 0.00 0.00 0.00 72 1019.4
20260509070020 16 8 0.0 1.6 0.00 0.00 0.00 74 1019.4
20260509064537 15 30 0.0 0.0 0.00 0.00 0.00 77 1019.3
20260509063101 15 296 0.0 0.0 0.00 0.00 0.00 78 1019.4
20260509061526 14 293 0.0 0.0 0.00 0.00 0.00 82 1019.3
20260509060015 13 104 0.0 0.0 0.00 0.00 0.00 82 1019.4
20260509054527 13 119 0.0 0.0 0.00 0.00 0.00 84 1019.4
20260509053053 12 121 0.0 0.0 0.00 0.00 0.00 84 1019.3
20260509051517 12 301 0.0 0.0 0.00 0.00 0.00 86 1019.2
20260509050039 11 299 0.0 0.0 0.00 0.00 0.00 87 1019.3
20260509044550 11 299 0.0 0.0 0.00 0.00 0.00 87 1019.1
20260509043015 11 304 0.0 0.0 0.00 0.00 0.00 87 1018.9
20260509041545 11 308 0.0 0.0 0.00 0.00 0.00 86 1018.8
20260509040100 11 304 0.0 1.6 0.00 0.00 0.00 87 1018.8
20260509034526 11 8 0.0 0.0 0.00 0.00 0.00 87 1018.7
20260509033056 11 8 0.0 0.0 0.00 0.00 0.00 85 1018.7
20260509031530 12 8 0.0 0.0 0.00 0.00 0.00 86 1018.7
20260509030032 12 13 0.0 1.6 0.00 0.00 0.00 87 1018.8
20260509024539 11 298 0.0 1.6 0.00 0.00 0.00 88 1018.9
20260509023058 11 298 0.0 0.0 0.00 0.00 0.00 88 1018.6
20260509021519 11 304 0.0 1.6 0.00 0.00 0.00 89 1018.6
20260509020035 11 305 0.0 0.0 0.00 0.00 0.00 90 1018.8
20260509014501 10 333 0.0 0.0 0.00 0.00 0.00 90 1018.8
20260509013040 10 333 0.0 0.0 0.00 0.00 0.00 89 1019.0
20260509011600 11 333 0.0 0.0 0.00 0.00 0.00 89 1019.1
20260509010103 11 333 0.0 0.0 0.00 0.00 0.00 89 1019.1
20260509004538 11 333 0.0 0.0 0.00 0.00 0.00 88 1019.0
20260509003042 11 325 0.0 0.0 0.00 0.00 0.00 88 1019.1
20260509001503 12 319 0.0 0.0 0.00 0.00 0.00 87 1019.0
20260509000016 12 8 0.0 8.0 0.00 0.00 0.00 88 1018.9
20260508234541 11 234 0.0 0.0 0.00 0.00 0.00 91 1018.9
20260508233002 11 233 0.0 0.0 0.00 0.00 0.00 90 1018.7
20260508231514 11 232 0.0 0.0 0.00 0.00 0.00 89 1018.7
20260508230009 11 232 0.0 0.0 0.00 0.00 0.00 89 1019.0
20260508224523 11 232 0.0 0.0 0.00 0.00 0.00 89 1019.0
20260508223053 11 232 0.0 0.0 0.00 0.00 0.00 89 1018.9
20260508221529 11 232 0.0 0.0 0.00 0.00 0.00 89 1018.8
20260508220033 11 232 0.0 0.0 0.00 0.00 0.00 88 1018.9
20260508214609 11 232 0.0 0.0 0.00 0.00 0.00 88 1018.8
20260508213028 11 232 0.0 0.0 0.00 0.00 0.00 88 1018.7